Tracking 19651 objects as of 23-Apr-2019
HD Live streaming from Space Station
objects crossing your sky now

METEOR 2-5 DEB

Track METEOR 2-5 DEB now!
10-day predictions


NORAD ID: 38275
Int'l Code: 1979-095BV
Perigee: 817.3 km
Apogee: 832.0 km
Inclination: 81.2 °
Period: 101.2 minutes
Semi major axis: 7195 km
RCS: 0.0132 m2 (small)
Launch date: October 31, 1979
Source: Commonwealth of Independent States (former USSR) (CIS)
Launch site: PLESETSK MISSILE AND SPACE COMPLEX (PKMTR)

Note: This is SATELLITE DEBRIS
aabbcc
Your satellite tracking list
Your tracking list is empty




NASA's NSSDC Master Catalog

Two Line Element Set (TLE):
1 38275U 79095BV  19110.96399397  .00001399  00000-0  62400-3 0  9999
2 38275  81.1943 206.7618 0010229 332.7780  27.2860 14.22313041445387
Source of the keplerian elements: AFSPC